THOR ALTAIR DEB, 2177

Orbit data source: Space-Track

THOR ALTAIR DEB, 2177 is space debris in SSO originally from a launch on Thu, 31 Mar 1966 UTC launched from the Air Force Western Test Range (AFWTR). Debris objects in space refer to the collection of defunct objects orbiting the Earth. Examples of debris include non-operational satellites, rocket bodies, and fragments generated from explosions, collisions, or faulty payload assembly.

Loading next visibility...
Identifier
2177, 1966-026D
Orbit
SSO
Country
Flag of USUS
Related business
Manufacturer
Unknown
Mission
Spacecraft
Bus & Motor
Unknown
Mass
Unknown
Launch date (UTC)
1966-03-31 (60 years ago)
Launch vehicle
Unknown
Launch site
Air Force Western Test Range (AFWTR)
Object type
Payload
Rocket body
Debris
Shape & HBR
Unknown shape, 0.1 m
Radar Cross Section
Small (<0.1 m²)

Expand to show TLE details & history
Last TLE update: 14 hours ago

TLE from 14 hours ago
0 THOR ALTAIR DEB
1  2177U 66026D   26175.93808463  .00003771  00000-0  43485-3 0  9994
2  2177  98.9736 168.6588 0125910 326.5878  32.7430 14.80845621163996
Epoch: 2026-06-24T22:30Z
TLE epoch observation values (Epoch: 2026-06-24T22:30:50.512Z)
Latitude
-0.00005°
Longitude
-82.13978°
Altitude
555.777 km
Speed
7.624 km/s
True Right ascension
11h 14m 38s
True Declination
0° 00' 00"
Sunlit
Object was in daylight at epoch
Visualization orbit readout
Latitude
Unknown
Longitude
Unknown
Altitude
Unknown
Speed
Unknown
Apparent Right ascension
Unknown
Apparent Declination
Unknown
Sunlit
N/A
Visualization observer readout
Local Sidereal Time
23:44:52
Azimuth
Unknown
Elevation
Unknown
Doppler factor
Unknown
Orbital elements
Apogee altitude
711.907 km
Perigee altitude
535.586 km
Semi-major axis
7,001.883 km
Eccentricity
0.01259
Inclination
98.9736°
RAAN
168.6588°
Arg. of periapsis
326.5878°
True anomaly
33.53382°
Mean anomaly
32.743°
Eccentric anomaly
33.13736°
Mean motion
3.70443 °/min
Orbital period
97.18 mins
BSTAR
0.00043485
Loading maneuver chart data...
Computing Atmospheric mass density...
Loading historical data...
Loading historical data...
Loading historical data...
Loading historical data...
Loading historical data...
Loading historical data...
Loading historical data...

Documentation

Showing up to 5 results
|